This demonstration page uses our WeatherBlox Daily Observations layout. Learn more.

Left ArrowRight Arrow

Hourly Observations for May 10, 2015

Temp ( °F °C ) Dew Point ( °F °C ) Humidity (%) Winds ( mph kmh ) Pressure ( in mb ) Visibility ( mi km ) Precip ( " mm )
12:52 am 00:52 Cloudy 65 18.3 58 14.4 78 78 ESE 12 19 29.84 1011 10 16 0.00 0.00
1:52 am 01:52 Cloudy 64 17.8 59 15 84 84 ESE 14 22 29.84 1011 10 16 0.00 0.00
2:52 am 02:52 Cloudy 65 18.3 59 15 81 81 ESE 17 28 29.82 1010 10 16 0.00 0.00
3:47 am 03:47 Cloudy 64 18 61 16 88 88 ESE 22 35 29.80 1009 10 16 0.00 0.00
3:52 am 03:52 Cloudy 64 17.8 60 15.6 87 87 ESE 18 30 29.81 1010 9 14 0.00 0.00
4:52 am 04:52 Cloudy with Light Rain 63 17.2 61 16.1 93 93 SE 10 17 29.79 1009 6 10 0.01 0.25
5:05 am 05:05 Cloudy with Light Rain 64 17.8 61 16.1 90 90 SE 14 22 29.77 1008 10 16 0.00 0.03
5:52 am 05:52 Cloudy 64 17.8 61 16.1 90 90 SE 14 22 29.77 1008 10 16 0.00 0.03
6:28 am 06:28 Cloudy 64 18 61 16 88 88 SE 14 22 29.77 1008 10 16 0.00 0.00
6:52 am 06:52 Cloudy 64 17.8 61 16.1 90 90 SE 12 19 29.79 1009 10 16 0.00 0.00
7:52 am 07:52 Mostly Cloudy 65 18.3 62 16.7 90 90 SSE 17 28 29.80 1009 10 16 0.00 0.00
8:26 am 08:26 Cloudy 66 19 63 17 88 88 SSE 14 22 29.77 1008 10 16 0.00 0.00
8:42 am 08:42 Cloudy 66 19 63 17 88 88 SSE 16 26 29.77 1008 10 16 0.00 0.00
8:52 am 08:52 Cloudy 66 18.9 63 17.2 90 90 SSE 17 28 29.79 1009 10 16 0.00 0.00
9:52 am 09:52 Cloudy 68 20 63 17.2 84 84 S 16 26 29.77 1008 10 16 0.00 0.00
10:52 am 10:52 Cloudy 70 21.1 63 17.2 79 79 S 12 19 29.76 1008 10 16 0.00 0.00
11:23 am 11:23 Cloudy 69 20.6 63 17.2 81 81 SSE 12 19 29.74 1007 10 16 0.00 0.00
11:34 am 11:34 Cloudy 70 21 63 17 78 78 SSE 10 17 29.74 1007 10 16 0.00 0.00
11:52 am 11:52 Cloudy 69 20.6 63 17.2 81 81 SSE 15 24 29.75 1008 10 16 0.00 0.00
12:52 pm 12:52 Cloudy with Light Rain 69 20.6 63 17.2 81 81 SE 18 30 29.74 1007 10 16 0.00 0.03
1:25 pm 13:25 Cloudy with Thunderstorms 66 19 63 17 88 88 SSE 41 67 29.77 1008 1 2 0.00 0.00
1:33 pm 13:33 Windy with Storms Likely 63 17 61 16 94 94 SSE 28 44 29.74 1007 4 6 0.00 0.00
1:52 pm 13:52 Mostly Cloudy with Light Rain 66 18.9 60 15.6 81 81 SSE 22 35 29.74 1007 7 11 0.16 4.06
2:52 pm 14:52 Cloudy 68 20 57 13.9 68 68 S 18 30 29.73 1007 10 16 0.00 0.03
3:52 pm 15:52 Cloudy with Light Rain 70 21.1 58 14.4 66 66 S 12 19 29.72 1006 10 16 0.00 0.03
4:52 pm 16:52 Cloudy with Light Rain 68 20 59 15 73 73 S 20 31 29.72 1006 10 16 0.00 0.03
5:52 pm 17:52 Cloudy 66 18.9 61 16.1 84 84 SSE 16 26 29.72 1006 10 16 0.00 0.03
6:52 pm 18:52 Mostly Cloudy 68 20 61 16.1 78 78 S 14 22 29.70 1006 10 16 0.00 0.00
7:52 pm 19:52 Mostly Cloudy 67 19.4 54 12.2 63 63 SW 10 17 29.71 1006 10 16 0.00 0.00
8:15 pm 20:15 Cloudy 63 17.2 50 10 63 63 W 10 17 29.71 1006 10 16 0.00 0.00
8:52 pm 20:52 Mostly Clear 61 16.1 48 8.9 63 63 WSW 14 22 29.75 1008 10 16 0.00 0.00
9:52 pm 21:52 Mostly Clear 57 13.9 42 5.6 58 58 WSW 15 24 29.81 1009 10 16 0.00 0.00
10:52 pm 22:52 Mostly Clear 54 12.2 42 5.6 64 64 WSW 15 24 29.82 1010 10 16 0.00 0.00
11:52 pm 23:52 Partly Cloudy 52 11.1 42 5.6 69 69 WSW 15 24 29.84 1010 10 16 0.00 0.00

Powered by AerisWeather